Location: Agadir Irigdalene
(31.2522°N, 8.7797°W)
Time: 06:12:53
(UTC+00:00)

Cosmos 2366 rocket - Pass Details

Date: 01 December 2020
Orbit: 955 x 997 km, 82.9° (Epoch: 25 January)

Event Time Altitude Azimuth Distance (km) Brightness Sun altitude
Rises 18:18:39 0° 354° (N) 3,649 6.9 -10.0°
Reaches altitude 10° 18:21:09 10° 355° (N) 2,695 6.2 -10.5°
Maximum altitude 18:27:20 87° 85° (E) 961 3.9 -11.8°
Drops below altitude 10° 18:33:27 10° 175° (S) 2,673 6.5 -13.0°
Sets 18:35:56 0° 175° (S) 3,617 7.2 -13.5°
